This is the latest recevied weather packets stored in our database for station/object KB3HLL. If no packets are shown the sender has not sent any weather packets the latest 10 day(s).
| Time | Temp. | Humidity | Pressure | Rain* | Wind** | Luminosity | Snow |
|---|---|---|---|---|---|---|---|
| 1777398081 | 8.33° C | 86% | 1019.1 hPa | 0 mm | - | 180 W/m² | - |
| 1777397778 | 8.89° C | 85% | 1018.9 hPa | 0 mm | - | 203 W/m² | - |
| 1777397478 | 8.89° C | 84% | 1019 hPa | 0 mm | - | 200 W/m² | - |
| 1777397178 | 8.89° C | 84% | 1019.1 hPa | 0 mm | - | 201 W/m² | - |
| 1777396877 | 8.89° C | 84% | 1019.2 hPa | 0 mm | - | 187 W/m² | - |
| 1777396577 | 8.89° C | 85% | 1019.3 hPa | 0 mm | - | 199 W/m² | - |
| 1777396278 | 8.89° C | 84% | 1019.2 hPa | 0 mm | - | 227 W/m² | - |
| 1777395980 | 9.44° C | 82% | 1019 hPa | 0 mm | - | 268 W/m² | - |
| 1777395679 | 9.44° C | 81% | 1019.3 hPa | 0 mm | - | 198 W/m² | - |
| 1777395378 | 9.44° C | 81% | 1019.4 hPa | 0 mm | - | 183 W/m² | - |
| 1777395078 | 9.44° C | 81% | 1019.1 hPa | 0 mm | - | 320 W/m² | - |
| 1777394778 | 9.44° C | 81% | 1018.8 hPa | 0 mm | - | 319 W/m² | - |
| 1777394479 | 9.44° C | 82% | 1019 hPa | 0 mm | - | 322 W/m² | - |
| 1777394179 | 8.89° C | 82% | 1019.2 hPa | 0 mm | - | 324 W/m² | - |
| 1777393878 | 8.89° C | 83% | 1019.3 hPa | 0 mm | - | 204 W/m² | - |
| 1777393578 | 8.89° C | 83% | 1019.3 hPa | 0 mm | - | 151 W/m² | - |
| 1777393278 | 8.89° C | 83% | 1019.3 hPa | 0.25 mm | - | 119 W/m² | - |
| 1777392981 | 8.89° C | 83% | 1019.4 hPa | 0.25 mm | - | 136 W/m² | - |
| 1777392677 | 8.89° C | 82% | 1019.5 hPa | 0.25 mm | - | 170 W/m² | - |
| 1777392377 | 9.44° C | 82% | 1019.5 hPa | 0.25 mm | - | 238 W/m² | - |
| 1777392078 | 8.89° C | 82% | 1019.6 hPa | 0.25 mm | - | 251 W/m² | - |
| 1777391778 | 9.44° C | 82% | 1019.5 hPa | 0.25 mm | - | 318 W/m² | - |
| 1777391478 | 8.89° C | 83% | 1019.7 hPa | 0.25 mm | - | 373 W/m² | - |
| 1777391178 | 8.89° C | 83% | 1019.7 hPa | 0.25 mm | - | 379 W/m² | - |
| 1777390879 | 8.89° C | 84% | 1020 hPa | 0.25 mm | - | 375 W/m² | - |
* Rain latest hour (hover to see other rain measurements)
** Current wind speed in m/s (hover to see current wind gust speed)